Hundvaag 1 weather for Dec 1988
Month no. 18
Obs.
Da.
Temp. Dew Point Precip. Wind
Speed
Wind gusts Cloud cover Press. Humidity Wind dir. Sunny OPT
01.12.1988 -3,6   0,0             1  
02.12.1988 -5,3   0,0             1  
03.12.1988 0,3   0,0                
04.12.1988 2,3   0,0                
05.12.1988 1,7   5,8                
06.12.1988 2,0   2,1             1  
07.12.1988 3,2   1,4                
08.12.1988 6,8   9,6                
09.12.1988 2,9   20,0             1  
10.12.1988 6,8   3,7                
11.12.1988 7,8   13,1                
12.12.1988 4,0   7,3             1  
13.12.1988 6,7   5,5                
14.12.1988 2,8   2,3                
15.12.1988 3,7   3,0                
16.12.1988 5,4   2,1                
17.12.1988 3,6   12,2                
18.12.1988 5,0   13,5                
19.12.1988 5,1   7,4             1  
20.12.1988 -0,4   1,9             1  
21.12.1988 5,9   6,3                
22.12.1988 6,1   8,7                
23.12.1988 2,1   3,8             1  
24.12.1988 4,7   21,3                
25.12.1988 1,4   4,9                
26.12.1988 7,1   18,9                
27.12.1988 6,2   19,0                
28.12.1988 6,3   1,8                
29.12.1988 7,9   11,4                
30.12.1988 7,3   2,2                
31.12.1988 0,6   1,7                
Avrg/Sum 3,8   210,9             8